Location: Melbourne
(37.8666°S, 145.1333°E)
Time: 18:27:57
(UTC+10:00)

Hubble Space Telescope - Visible Passes

Search period start: 24 September 2017 00:00
Search period end: 04 October 2017 01:00
Orbit: 538 x 541 km, 28.5° (Epoch: 23 September)

Date Brightness Start Highest point End Pass type
(mag) Time Alt. Az. Time Alt. Az. Time Alt. Az.
26 Sep 3.1 19:07:57 10° NNE 19:08:29 10° NNE 19:09:01 10° NNE visible
27 Sep 3.0 18:56:28 10° N 18:58:12 12° NNE 18:59:56 10° NE visible
27 Sep 3.4 20:35:35 10° NW 20:36:05 12° NW 20:36:05 12° NW visible
28 Sep 2.9 18:45:39 10° NNW 18:47:56 14° NNE 18:50:13 10° NE visible
28 Sep 3.0 20:25:17 10° NW 20:26:42 17° NNW 20:26:42 17° NNW visible
29 Sep 2.6 20:15:02 10° NW 20:17:15 20° NNW 20:17:15 20° NNW visible
30 Sep 2.4 20:04:48 10° NW 20:07:45 22° N 20:07:45 22° N visible
01 Oct 2.4 20:54:37 10° NW 20:57:49 21° N 20:58:14 21° N visible
02 Oct 2.5 20:44:28 10° NW 20:47:34 20° N 20:48:42 18° NNE visible
03 Oct 2.7 20:34:22 10° NW 20:37:20 19° N 20:39:10 15° NNE visible
